Location: Newark
(16.3678°N, 77.8722°E)
Time: 19:28:48
(UTC+00:00)

S-56A Canister/Altair - Pass Details

Date: 15 December 2019
Orbit: 634 x 2498 km, 38.9° (Epoch: 18 January)

Event Time Altitude Azimuth Distance (km) Brightness Sun altitude
Rises 09:36:54 0° 309° (NW) 6,163 12.2 32.0°
Reaches altitude 10° 09:41:10 10° 312° (NW) 5,088 11.9 31.2°
Maximum altitude 09:55:30 65° 33° (NNE) 2,195 10.0 28.6°
Drops below altitude 10° 10:05:44 10° 113° (ESE) 3,757 10.9 26.7°
Sets 10:08:23 0° 117° (ESE) 4,514 11.2 26.2°
